Regional Weather Roundup
Issued by NWS Albany, NY

Home | Current Version | Previous Version | Text Only | Print | Product List | Glossary On
Versions: 1 2 3 4 5 6 7 8 9 10 11 12 13 14 15 16 17 18 19 20 21 22 23 24 25 26 27
000
ASUS41 KALY 240710
RWRALY

NEW YORK STATE HOURLY WEATHER ROUNDUP
NATIONAL WEATHER SERVICE ALBANY NY
300 AM EDT WED AUG 24 2016

NOTE: "FAIR" INDICATES FEW OR NO CLOUDS BELOW 12,000 FEET WITH NO
SIGNIFICANT WEATHER AND/OR NO OBSTRUCTIONS TO VISIBILITY.

NYZ032-033-038>043-046>054-057>066-NYZ062>081-082-084-240800-
EAST


CITY           SKY/WX    TMP DP  RH WIND       PRES   REMARKS
ALBANY         PTCLDY    61  57  87 CALM      30.26S
GLENS FALLS    CLEAR     58  55  90 CALM      30.24F
POUGHKEEPSIE   CLEAR     60  56  86 CALM      30.25F
NEWBURGH       CLEAR     61  59  94 W6        30.28F
MONTGOMERY     PTCLDY    57  55  93 SW5       30.27F
WHITE PLAINS   CLEAR     64  61  90 CALM      30.26F
ISLIP          CLEAR     66  61  84 SW5       30.26F
NEW YORK CITY  CLEAR     73  59  61 S6        30.25F
CENTRAL PARK   CLEAR     70  57  63 W3        30.29F
$$

NYZ005>009-017-018-044>046-055-056-240800-
CENTRAL


CITY           SKY/WX    TMP DP  RH WIND       PRES   REMARKS
FULTON         CLEAR     58  56  93 CALM      30.22F
SYRACUSE       CLEAR     61  57  87 SE3       30.22F
ROME           CLEAR     58  57  97 SE5       30.26F
ELMIRA         CLEAR     52  51  97 CALM      30.27S
BINGHAMTON     CLEAR     60  54  80 S3        30.28F
MONTICELLO     CLEAR     54  52  94 CALM      30.31S
$$

NYZ026>034-041>043-087-240800-
NORTH


CITY           SKY/WX    TMP DP  RH WIND       PRES   REMARKS
WATERTOWN      CLEAR     65  55  70 VRB3      30.20F
FORT DRUM      NOT AVBL
MASSENA        CLEAR     63  57  81 S5        30.19S
SARANAC LAKE   CLEAR     50  47  89 CALM      30.25F
PLATTSBURGH    CLOUDY    64  57  78 S5        30.19S
$$

NYZ001>004-010>016-019>021-085-240800-
WEST


CITY           SKY/WX    TMP DP  RH WIND       PRES   REMARKS
NIAGARA FALLS  CLEAR     65  59  81 CALM      30.20F
BUFFALO        CLEAR     64  57  78 SE7       30.21F
DUNKIRK        CLEAR     58  56  93 CALM      30.21F
JAMESTOWN      CLEAR     59  55  88 S5        30.26S
WELLSVILLE     CLEAR     56  54  93 CALM      30.31F
ROCHESTER      CLEAR     63  58  83 SW6       30.23F
PENN YAN       CLEAR     62  58  86 SW5       30.25F
$$

             KEY
       WCI = WIND CHILL INDEX
       VSB = VISIBILITY
       HX  = HEAT INDEX
$$




USA.gov is the U.S. government's official web portal to all federal, state and local government web resources and services.